Regional Weather Roundup
Issued by NWS

Home | Current Version | Previous Version | Graphics & Text | Print | Product List | Glossary On
Versions: 1 2 3 4 5 6 7 8 9 10 11 12 13 14 15 16 17 18 19 20 21 22 23 24 25 26 27 28 29 30 31 32 33 34 35 36 37 38 39 40 41 42 43 44 45 46 47 48 49 50
000
ASUS43 KTOP 161808
RWRKS

WEATHER ROUNDUP FOR KANSAS
NATIONAL WEATHER SERVICE GOODLAND KS
100 PM CDT WED APR 16 2014

NOTE:  "FAIR" INDICATES FEW OR NO CLOUDS BELOW 12,000 FEET WITH NO
SIGNIFICANT WEATHER AND/OR OBSTRUCTIONS TO VISIBILITY.

KSZ001>006-013>018-027>032-041>047-161900-
NORTHWEST KANSAS

CITY           SKY/WX    TMP DP  RH WIND       PRES   REMARKS
GOODLAND       PTSUNNY   57  28  33 NW29G44   29.87R
6HR MIN TEMP:  43; 6HR MAX TEMP:  57;

HAYS           FAIR      64  36  34 NW21      29.80R
HILL CITY      FAIR      64  35  34 N21G35    29.79S
6HR MIN TEMP:  44; 6HR MAX TEMP:  64;

RUSSELL        FAIR      66  36  32 NW16      29.76R
6HR MIN TEMP:  46; 6HR MAX TEMP:  67;

$$

KSZ061>065-074>080-084>089-161900-
SOUTHWEST KANSAS

CITY           SKY/WX    TMP DP  RH WIND       PRES   REMARKS
DODGE CITY     FAIR      66  31  27 N21G29    29.83R
6HR MIN TEMP:  44; 6HR MAX TEMP:  67;

ELKHART          N/A     63  30  28 N16         N/A
GARDEN CITY    FAIR      61  28  28 N25G31    29.85S
6HR MIN TEMP:  37; 6HR MAX TEMP:  63;

GREAT BEND     FAIR      66  32  28 NW10G18   29.78S
LIBERAL        FAIR      66  30  26 NE23G30   29.86S
$$

KSZ066>073-081>083-090>101-161900-
SOUTHEAST KANSAS

CITY           SKY/WX    TMP DP  RH WIND       PRES   REMARKS
CHANUTE        FAIR      60  33  36 S29G40    29.95F
6HR MIN TEMP:  43; 6HR MAX TEMP:  60;

COFFEYVILLE    FAIR      61  32  33 S30G40    29.98F
6HR MIN TEMP:  43; 6HR MAX TEMP:  61;

HUTCHINSON     FAIR      67  24  19 SW26G35   29.81F
6HR MIN TEMP:  46; 6HR MAX TEMP:  67;

MEDICINE LODGE   N/A     66  23  19 SW17G25   29.83S
NEWTON         FAIR      64  27  24 SW30G44   29.86S
PARSONS        FAIR      61  32  33 S20G33    29.97F
6HR MIN TEMP:  44; 6HR MAX TEMP:  61;

WICHITA INTL   PTSUNNY   65  27  23 S32G46    29.85F
6HR MIN TEMP:  46; 6HR MAX TEMP:  65;

WICHITA JABRA  FAIR      65  28  24 SW31G44   29.85F
6HR MIN TEMP:  47; 6HR MAX TEMP:  65;

WICHITA MCCONL FAIR      65  25  22 S31G40    29.85F
WINFIELD       FAIR      65  29  25 S26G44    29.90F
6HR MIN TEMP:  46; 6HR MAX TEMP:  65;

$$

KSZ007>012-019>026-033>040-048>060-102>105-161900-
NORTHEAST KANSAS

CITY           SKY/WX    TMP DP  RH WIND       PRES   REMARKS
CONCORDIA      FAIR      65  26  23 SW21G29   29.73S
6HR MIN TEMP:  48; 6HR MAX TEMP:  65;

EMPORIA        FAIR      63  27  25 S31G45    29.87S
6HR MIN TEMP:  44; 6HR MAX TEMP:  63;

LAWRENCE       FAIR      62  32  32 S28G41    29.88F
6HR MIN TEMP:  45; 6HR MAX TEMP:  63;

MANHATTAN      FAIR      66  28  24 SW26G44   29.77F
6HR MIN TEMP:  48; 6HR MAX TEMP:  66;

OLATHE IND     FAIR      61  33  35 S25G35    29.91F
6HR MIN TEMP:  43; 6HR MAX TEMP:  61;

OLATHE EXE     FAIR      59  31  34 S23G44    29.91F
6HR MIN TEMP:  41; 6HR MAX TEMP:  59;

SALINA         FAIR      68  27  21 SW24G37   29.79S
6HR MIN TEMP:  48; 6HR MAX TEMP:  68;

TOPEKA BILLARD FAIR      64  31  28 S22G33    29.86S
6HR MIN TEMP:  47; 6HR MAX TEMP:  64;

TOPEKA FORBES  FAIR      61  30  31 S28G40    29.85R
6HR MIN TEMP:  45; 6HR MAX TEMP:  62;

$$



USA.gov is the U.S. government's official web portal to all federal, state and local government web resources and services.